METEOSAT-12 (MTG-1)

Last updated on Wed Apr 05 2023 00:02:48 GMT+0000 (Coordinated Universal Time)

1 54743U 22170C 23094.59557729 -.00000030 00000+0 00000+0 0 9994 2 54743 0.7499 304.0351 0002991 99.1789 0.4318 1.00268107 1253
UTC large
Height (km)
Speed (km/s)
/
Latitude / Longitude
Inclination (degrees)
Orbital Period (minutes)
Azimuth
Elevation
Range (km)
Doppler Factor

Next 0 passes for location: London (51.5072 / 0.1276)

Sorry there are no passes over London.